Station Historical Data
Daily Summary for July 1, 2012 Units:  English    Metric   Both
« Previous Day
Next Day »
Daily Weekly Monthly Yearly Custom
  High: Low: Average:
Temperature: 101.0 °F 75.2 °F 88.3 °F
Dew Point: 74.0 °F 66.6 °F 69.6 °F
Humidity: 81% 34% 56%
Wind Speed: 11.0mph 0.0mph 2.5mph
Wind Gust: 13.0mph - -
Wind- - WSW
Pressure: 29.96 in 29.84 in -
Precipitation: 0.00 in    
Historical Graphs
 
 
Tabular Data for July 1, 2012
Time Temperature Dew Point Pressure Wind Wind Speed Wind Gust Humidity Rainfall Rate (Hourly) Conditions
00:00 82.9 °F 67.1 °F 29.85 in Calm     59% 0.00 in
00:05 82.5 °F 67.7 °F 29.85 in Calm     61% 0.00 in
00:10 82.1 °F 67.3 °F 29.85 in Calm     61% 0.00 in
00:15 81.7 °F 66.9 °F 29.85 in Calm     61% 0.00 in
00:20 81.2 °F 66.9 °F 29.85 in Calm     62% 0.00 in
00:25 80.9 °F 66.7 °F 29.85 in Calm     62% 0.00 in
00:31 81.6 °F 66.9 °F 29.85 in Calm     61% 0.00 in
00:36 82.2 °F 66.9 °F 29.85 in Calm     60% 0.00 in
00:41 82.1 °F 67.3 °F 29.85 in Calm     61% 0.00 in
00:46 81.8 °F 67.1 °F 29.85 in Calm     61% 0.00 in
00:51 81.4 °F 66.7 °F 29.85 in Calm     61% 0.00 in
00:56 81.1 °F 67.3 °F 29.85 in Calm     63% 0.00 in
01:01 81.0 °F 67.2 °F 29.85 in Calm     63% 0.00 in
01:06 81.0 °F 67.2 °F 29.85 in Calm     63% 0.00 in
01:11 81.0 °F 67.2 °F 29.85 in Calm     63% 0.00 in
01:16 80.8 °F 67.5 °F 29.85 in Calm     64% 0.00 in
01:21 80.6 °F 67.8 °F 29.85 in Calm     65% 0.00 in
01:26 80.2 °F 67.4 °F 29.85 in Calm     65% 0.00 in
01:31 80.0 °F 67.2 °F 29.85 in Calm     65% 0.00 in
01:36 80.0 °F 67.2 °F 29.85 in Calm     65% 0.00 in
01:41 79.7 °F 67.3 °F 29.85 in Calm     66% 0.00 in
01:46 79.2 °F 67.3 °F 29.85 in Calm     67% 0.00 in
01:51 78.8 °F 67.4 °F 29.85 in Calm     68% 0.00 in
01:56 78.6 °F 67.6 °F 29.85 in Calm     69% 0.00 in
02:01 78.8 °F 67.4 °F 29.85 in Calm     68% 0.00 in
02:06 78.9 °F 67.9 °F 29.85 in Calm     69% 0.00 in
02:11 79.2 °F 67.7 °F 29.85 in Calm     68% 0.00 in
02:16 79.3 °F 67.8 °F 29.85 in Calm     68% 0.00 in
02:21 79.5 °F 67.6 °F 29.85 in Calm     67% 0.00 in
02:26 79.7 °F 67.8 °F 29.85 in Calm     67% 0.00 in
02:31 79.9 °F 67.5 °F 29.85 in Calm     66% 0.00 in
02:36 79.8 °F 67.9 °F 29.85 in Calm     67% 0.00 in
02:41 79.3 °F 67.4 °F 29.85 in Calm     67% 0.00 in
02:46 79.1 °F 67.6 °F 29.85 in Calm     68% 0.00 in
02:51 79.2 °F 67.3 °F 29.85 in Calm     67% 0.00 in
02:56 79.2 °F 67.7 °F 29.85 in Calm     68% 0.00 in
03:01 79.3 °F 67.4 °F 29.84 in Calm     67% 0.00 in
03:06 79.0 °F 67.1 °F 29.85 in Calm     67% 0.00 in
03:11 78.5 °F 67.1 °F 29.85 in Calm     68% 0.00 in
03:16 78.1 °F 67.9 °F 29.85 in Calm     71% 0.00 in
03:21 77.6 °F 67.5 °F 29.85 in Calm     71% 0.00 in
03:26 77.2 °F 67.5 °F 29.85 in Calm     72% 0.00 in
03:31 76.8 °F 67.5 °F 29.85 in Calm     73% 0.00 in
03:36 76.8 °F 67.5 °F 29.85 in Calm     73% 0.00 in
03:41 76.6 °F 67.7 °F 29.85 in Calm     74% 0.00 in
03:46 76.6 °F 67.7 °F 29.86 in Calm     74% 0.00 in
03:51 76.4 °F 67.5 °F 29.86 in Calm     74% 0.00 in
03:56 76.2 °F 68.1 °F 29.86 in Calm     76% 0.00 in
04:01 76.2 °F 68.1 °F 29.86 in Calm     76% 0.00 in
04:06 76.3 °F 67.8 °F 29.86 in Calm     75% 0.00 in
04:12 76.1 °F 67.6 °F 29.86 in Calm     75% 0.00 in
04:17 75.9 °F 67.8 °F 29.86 in Calm     76% 0.00 in
04:22 75.9 °F 67.8 °F 29.86 in Calm     76% 0.00 in
04:27 76.0 °F 67.9 °F 29.86 in Calm     76% 0.00 in
04:32 75.8 °F 68.1 °F 29.86 in Calm     77% 0.00 in
04:37 75.5 °F 68.2 °F 29.86 in Calm     78% 0.00 in
04:42 75.5 °F 68.5 °F 29.87 in Calm     79% 0.00 in
04:47 75.3 °F 68.3 °F 29.86 in Calm     79% 0.00 in
04:52 75.2 °F 68.6 °F 29.87 in Calm     80% 0.00 in
04:57 75.3 °F 69.1 °F 29.87 in Calm     81% 0.00 in
05:02 75.4 °F 68.8 °F 29.87 in Calm     80% 0.00 in
05:07 75.8 °F 68.8 °F 29.87 in NNW 2.0 mph 2.0 mph 79% 0.00 in
05:12 76.1 °F 68.4 °F 29.87 in NNW 1.0 mph 2.0 mph 77% 0.00 in
05:17 76.5 °F 68.4 °F 29.87 in NNW 2.0 mph 3.0 mph 76% 0.00 in
05:22 77.0 °F 68.5 °F 29.87 in NNW 2.0 mph 3.0 mph 75% 0.00 in
05:27 77.7 °F 68.8 °F 29.87 in NW 2.0 mph 3.0 mph 74% 0.00 in
05:32 78.1 °F 68.8 °F 29.88 in NW 3.0 mph 4.0 mph 73% 0.00 in
05:37 78.5 °F 68.7 °F 29.87 in NNW 2.0 mph 4.0 mph 72% 0.00 in
05:42 78.6 °F 68.8 °F 29.88 in NW 2.0 mph 4.0 mph 72% 0.00 in
05:47 78.8 °F 68.6 °F 29.88 in NW 3.0 mph 4.0 mph 71% 0.00 in
05:52 79.0 °F 68.8 °F 29.88 in NNW 2.0 mph 4.0 mph 71% 0.00 in
05:57 79.1 °F 68.9 °F 29.88 in NW 2.0 mph 4.0 mph 71% 0.00 in
06:03 79.1 °F 68.9 °F 29.88 in NNW 2.0 mph 4.0 mph 71% 0.00 in
06:08 79.1 °F 68.9 °F 29.88 in NW 2.0 mph 3.0 mph 71% 0.00 in
06:13 79.0 °F 68.8 °F 29.88 in NW 1.0 mph 2.0 mph 71% 0.00 in
06:18 79.0 °F 68.8 °F 29.88 in NW 2.0 mph 3.0 mph 71% 0.00 in
06:23 78.9 °F 68.7 °F 29.89 in NW 1.0 mph 2.0 mph 71% 0.00 in
06:28 78.9 °F 68.7 °F 29.89 in NW 2.0 mph 3.0 mph 71% 0.00 in
06:33 79.1 °F 68.9 °F 29.89 in NW 1.0 mph 3.0 mph 71% 0.00 in
06:38 79.0 °F 68.8 °F 29.89 in NW 1.0 mph 2.0 mph 71% 0.00 in
06:43 78.9 °F 68.7 °F 29.89 in NW 1.0 mph 2.0 mph 71% 0.00 in
06:48 78.9 °F 68.7 °F 29.89 in NNW 2.0 mph 2.0 mph 71% 0.00 in
06:53 78.8 °F 68.6 °F 29.89 in North 2.0 mph 2.0 mph 71% 0.00 in
06:58 78.8 °F 68.6 °F 29.90 in Calm   2.0 mph 71% 0.00 in
07:03 78.6 °F 68.8 °F 29.90 in Calm     72% 0.00 in
07:08 78.7 °F 68.9 °F 29.90 in NNW 1.0 mph 1.0 mph 72% 0.00 in
07:13 78.8 °F 68.6 °F 29.90 in Calm     71% 0.00 in
07:18 79.0 °F 68.8 °F 29.90 in Calm   1.0 mph 71% 0.00 in
07:23 79.1 °F 68.9 °F 29.90 in Calm   1.0 mph 71% 0.00 in
07:28 79.3 °F 69.1 °F 29.90 in Calm     71% 0.00 in
07:33 79.3 °F 69.1 °F 29.91 in Calm     71% 0.00 in
07:38 79.4 °F 69.2 °F 29.91 in Calm     71% 0.00 in
07:43 79.8 °F 69.6 °F 29.91 in Calm     71% 0.00 in
07:48 80.2 °F 70.4 °F 29.91 in Calm     72% 0.00 in
07:53 81.0 °F 71.1 °F 29.91 in Calm     72% 0.00 in
07:58 81.4 °F 71.5 °F 29.91 in Calm     72% 0.00 in
08:03 81.8 °F 71.5 °F 29.91 in Calm     71% 0.00 in
08:08 81.5 °F 70.4 °F 29.92 in NNW 1.0 mph 1.0 mph 69% 0.00 in
08:13 81.3 °F 70.6 °F 29.92 in Calm   1.0 mph 70% 0.00 in
08:18 81.8 °F 71.5 °F 29.92 in Calm     71% 0.00 in
08:23 82.2 °F 71.0 °F 29.92 in NNW 1.0 mph 1.0 mph 69% 0.00 in
08:28 82.4 °F 70.8 °F 29.92 in WNW 1.0 mph 2.0 mph 68% 0.00 in
08:33 82.7 °F 70.6 °F 29.92 in WNW 1.0 mph 2.0 mph 67% 0.00 in
08:38 83.0 °F 70.9 °F 29.92 in WNW 2.0 mph 2.0 mph 67% 0.00 in
08:43 83.4 °F 71.3 °F 29.92 in WNW 2.0 mph 3.0 mph 67% 0.00 in
08:48 83.7 °F 71.6 °F 29.92 in WNW 1.0 mph 3.0 mph 67% 0.00 in
08:53 84.0 °F 71.4 °F 29.93 in WNW 3.0 mph 4.0 mph 66% 0.00 in
08:58 84.4 °F 71.8 °F 29.93 in WNW 4.0 mph 5.0 mph 66% 0.00 in
09:03 84.8 °F 72.2 °F 29.93 in WNW 3.0 mph 4.0 mph 66% 0.00 in
09:08 85.3 °F 72.2 °F 29.94 in NW 2.0 mph 4.0 mph 65% 0.00 in
09:13 85.7 °F 72.1 °F 29.94 in WNW 3.0 mph 7.0 mph 64% 0.00 in
09:18 86.2 °F 71.7 °F 29.94 in WNW 5.0 mph 6.0 mph 62% 0.00 in
09:23 86.5 °F 71.5 °F 29.94 in West 5.0 mph 6.0 mph 61% 0.00 in
09:28 86.6 °F 71.6 °F 29.94 in WNW 4.0 mph 6.0 mph 61% 0.00 in
09:33 86.8 °F 71.8 °F 29.94 in WNW 3.0 mph 8.0 mph 61% 0.00 in
09:38 87.1 °F 72.5 °F 29.94 in WNW 4.0 mph 6.0 mph 62% 0.00 in
09:43 87.3 °F 71.7 °F 29.95 in WNW 4.0 mph 7.0 mph 60% 0.00 in
09:48 87.5 °F 71.9 °F 29.95 in NW 2.0 mph 8.0 mph 60% 0.00 in
09:53 88.0 °F 72.4 °F 29.95 in WNW 4.0 mph 7.0 mph 60% 0.00 in
09:58 88.1 °F 72.5 °F 29.95 in WNW 4.0 mph 7.0 mph 60% 0.00 in
10:04 88.1 °F 73.0 °F 29.95 in NW 7.0 mph 7.0 mph 61% 0.00 in
10:09 88.2 °F 72.6 °F 29.95 in WNW 4.0 mph 8.0 mph 60% 0.00 in
10:14 88.6 °F 72.9 °F 29.95 in WNW 4.0 mph 5.0 mph 60% 0.00 in
10:19 88.9 °F 72.7 °F 29.95 in NW 4.0 mph 7.0 mph 59% 0.00 in
10:24 89.1 °F 73.4 °F 29.95 in West 5.0 mph 7.0 mph 60% 0.00 in
10:29 89.2 °F 74.0 °F 29.95 in WNW 4.0 mph 6.0 mph 61% 0.00 in
10:34 89.2 °F 72.5 °F 29.95 in West 5.0 mph 7.0 mph 58% 0.00 in
10:39 89.6 °F 73.4 °F 29.95 in WNW 3.0 mph 7.0 mph 59% 0.00 in
10:44 89.9 °F 73.2 °F 29.95 in WNW 2.0 mph 5.0 mph 58% 0.00 in
10:49 90.1 °F 72.8 °F 29.95 in WNW 4.0 mph 8.0 mph 57% 0.00 in
10:54 90.4 °F 73.6 °F 29.95 in WNW 6.0 mph 7.0 mph 58% 0.00 in
10:59 90.7 °F 72.9 °F 29.95 in NW 4.0 mph 6.0 mph 56% 0.00 in
11:04 90.7 °F 73.4 °F 29.95 in NW 4.0 mph 7.0 mph 57% 0.00 in
11:09 91.1 °F 73.8 °F 29.95 in NW 6.0 mph 7.0 mph 57% 0.00 in
11:14 91.1 °F 72.7 °F 29.95 in West 2.0 mph 9.0 mph 55% 0.00 in
11:19 91.3 °F 72.3 °F 29.95 in NW 6.0 mph 7.0 mph 54% 0.00 in
11:24 91.9 °F 73.4 °F 29.96 in WNW 2.0 mph 5.0 mph 55% 0.00 in
11:29 92.0 °F 73.0 °F 29.96 in NW 8.0 mph 9.0 mph 54% 0.00 in
11:34 91.9 °F 71.8 °F 29.96 in WNW 7.0 mph 9.0 mph 52% 0.00 in
11:39 92.2 °F 72.6 °F 29.96 in WNW 5.0 mph 6.0 mph 53% 0.00 in
11:44 92.3 °F 72.7 °F 29.96 in NW 7.0 mph 8.0 mph 53% 0.00 in
11:49 92.6 °F 71.3 °F 29.96 in West 8.0 mph 12.0 mph 50% 0.00 in
11:54 93.0 °F 72.2 °F 29.96 in West 6.0 mph 8.0 mph 51% 0.00 in
11:59 93.4 °F 71.4 °F 29.96 in NW 6.0 mph 8.0 mph 49% 0.00 in
12:04 93.7 °F 71.7 °F 29.96 in WNW 6.0 mph 6.0 mph 49% 0.00 in
12:09 93.8 °F 71.8 °F 29.96 in WNW 1.0 mph 5.0 mph 49% 0.00 in
12:14 94.1 °F 71.4 °F 29.96 in WNW 4.0 mph 10.0 mph 48% 0.00 in
12:19 94.3 °F 71.6 °F 29.96 in NW 4.0 mph 6.0 mph 48% 0.00 in
12:24 94.8 °F 70.8 °F 29.96 in NNE 2.0 mph 8.0 mph 46% 0.00 in
12:29 95.2 °F 70.5 °F 29.96 in WNW 4.0 mph 6.0 mph 45% 0.00 in
12:34 95.1 °F 70.4 °F 29.96 in WNW 3.0 mph 6.0 mph 45% 0.00 in
12:39 95.4 °F 71.3 °F 29.96 in WNW 2.0 mph 5.0 mph 46% 0.00 in
12:44 96.0 °F 70.6 °F 29.95 in NW 1.0 mph 3.0 mph 44% 0.00 in
12:49 96.0 °F 71.2 °F 29.95 in Calm   4.0 mph 45% 0.00 in
12:54 95.7 °F 69.6 °F 29.95 in NNE 2.0 mph 7.0 mph 43% 0.00 in
12:59 96.2 °F 70.8 °F 29.95 in SE 3.0 mph 3.0 mph 44% 0.00 in
13:04 97.7 °F 71.4 °F 29.95 in NW 2.0 mph 3.0 mph 43% 0.00 in
13:09 96.8 °F 69.2 °F 29.95 in WNW 4.0 mph 6.0 mph 41% 0.00 in
13:14 96.6 °F 70.4 °F 29.95 in North 5.0 mph 11.0 mph 43% 0.00 in
13:19 97.0 °F 70.8 °F 29.95 in NE 5.0 mph 5.0 mph 43% 0.00 in
13:24 97.0 °F 70.8 °F 29.94 in ESE 1.0 mph 3.0 mph 43% 0.00 in
13:29 97.5 °F 70.6 °F 29.94 in SW 8.0 mph 9.0 mph 42% 0.00 in
13:34 97.2 °F 70.3 °F 29.94 in WSW 5.0 mph 8.0 mph 42% 0.00 in
13:39 97.3 °F 69.7 °F 29.94 in South 3.0 mph 5.0 mph 41% 0.00 in
13:45 97.8 °F 70.8 °F 29.94 in SW 3.0 mph 7.0 mph 42% 0.00 in
13:50 97.7 °F 70.0 °F 29.94 in SE 3.0 mph 7.0 mph 41% 0.00 in
13:55 98.0 °F 70.3 °F 29.94 in SW 5.0 mph 7.0 mph 41% 0.00 in
14:00 98.3 °F 69.8 °F 29.94 in WSW 7.0 mph 8.0 mph 40% 0.00 in
14:05 99.1 °F 69.8 °F 29.94 in SSW 3.0 mph 6.0 mph 39% 0.00 in
14:10 99.2 °F 70.7 °F 29.93 in WSW 9.0 mph 9.0 mph 40% 0.00 in
14:15 98.5 °F 70.0 °F 29.93 in SE 2.0 mph 8.0 mph 40% 0.00 in
14:20 98.7 °F 70.2 °F 29.93 in SSE 3.0 mph 9.0 mph 40% 0.00 in
14:25 98.7 °F 70.2 °F 29.93 in WSW 11.0 mph 11.0 mph 40% 0.00 in
14:30 98.0 °F 68.8 °F 29.93 in SW 5.0 mph 10.0 mph 39% 0.00 in
14:35 98.1 °F 68.2 °F 29.93 in WSW 10.0 mph 10.0 mph 38% 0.00 in
14:40 98.2 °F 69.0 °F 29.93 in South 6.0 mph 10.0 mph 39% 0.00 in
14:45 98.7 °F 68.7 °F 29.92 in SW 5.0 mph 11.0 mph 38% 0.00 in
14:50 99.0 °F 70.5 °F 29.92 in WSW 5.0 mph 8.0 mph 40% 0.00 in
14:55 99.1 °F 69.1 °F 29.92 in SSE 4.0 mph 8.0 mph 38% 0.00 in
15:00 99.6 °F 70.3 °F 29.92 in WSW 10.0 mph 11.0 mph 39% 0.00 in
15:05 99.7 °F 68.8 °F 29.92 in SW 3.0 mph 5.0 mph 37% 0.00 in
15:10 99.9 °F 69.0 °F 29.92 in SSW 7.0 mph 12.0 mph 37% 0.00 in
15:15 99.6 °F 68.7 °F 29.92 in ESE 2.0 mph 9.0 mph 37% 0.00 in
15:20 99.4 °F 69.3 °F 29.91 in SW 4.0 mph 4.0 mph 38% 0.00 in
15:25 99.5 °F 68.6 °F 29.92 in SSE 6.0 mph 8.0 mph 37% 0.00 in
15:30 99.8 °F 69.7 °F 29.91 in SSW 4.0 mph 5.0 mph 38% 0.00 in
15:35 99.3 °F 69.2 °F 29.91 in SW 1.0 mph 5.0 mph 38% 0.00 in
15:40 99.0 °F 68.2 °F 29.91 in SSW 5.0 mph 13.0 mph 37% 0.00 in
15:45 99.1 °F 68.3 °F 29.91 in SSE 7.0 mph 7.0 mph 37% 0.00 in
15:50 99.0 °F 69.7 °F 29.90 in SE 7.0 mph 8.0 mph 39% 0.00 in
15:55 99.1 °F 68.3 °F 29.90 in SSE 7.0 mph 11.0 mph 37% 0.00 in
16:00 99.2 °F 68.4 °F 29.90 in SW 3.0 mph 4.0 mph 37% 0.00 in
16:05 99.5 °F 67.8 °F 29.90 in SW 8.0 mph 11.0 mph 36% 0.00 in
16:10 99.6 °F 68.7 °F 29.90 in SE 5.0 mph 6.0 mph 37% 0.00 in
16:16 99.9 °F 67.4 °F 29.90 in SE 5.0 mph 8.0 mph 35% 0.00 in
16:21 100.1 °F 67.5 °F 29.89 in SSW 3.0 mph 5.0 mph 35% 0.00 in
16:26 99.6 °F 67.9 °F 29.89 in South 3.0 mph 5.0 mph 36% 0.00 in
16:31 99.4 °F 67.8 °F 29.89 in SSW 3.0 mph 9.0 mph 36% 0.00 in
16:36 100.3 °F 69.3 °F 29.89 in SW 4.0 mph 8.0 mph 37% 0.00 in
16:41 100.6 °F 68.8 °F 29.89 in WSW 11.0 mph 11.0 mph 36% 0.00 in
16:46 100.4 °F 67.8 °F 29.89 in SW 3.0 mph 8.0 mph 35% 0.00 in
16:51 100.5 °F 68.7 °F 29.88 in SSW 6.0 mph 9.0 mph 36% 0.00 in
16:56 101.0 °F 68.3 °F 29.88 in West 3.0 mph 6.0 mph 35% 0.00 in
17:01 100.6 °F 67.1 °F 29.88 in WNW 4.0 mph 10.0 mph 34% 0.00 in
17:06 100.1 °F 67.5 °F 29.88 in WSW 5.0 mph 7.0 mph 35% 0.00 in
17:11 100.1 °F 67.5 °F 29.88 in WNW 4.0 mph 7.0 mph 35% 0.00 in
17:16 100.0 °F 68.3 °F 29.88 in WSW 4.0 mph 8.0 mph 36% 0.00 in
17:21 100.0 °F 66.6 °F 29.87 in WNW 4.0 mph 8.0 mph 34% 0.00 in
17:26 99.5 °F 67.8 °F 29.87 in West 4.0 mph 8.0 mph 36% 0.00 in
17:31 99.7 °F 68.8 °F 29.87 in West 3.0 mph 5.0 mph 37% 0.00 in
17:36 100.3 °F 68.5 °F 29.86 in West 6.0 mph 7.0 mph 36% 0.00 in
17:41 99.9 °F 68.2 °F 29.86 in West 2.0 mph 5.0 mph 36% 0.00 in
17:46 99.9 °F 69.0 °F 29.86 in SW 8.0 mph 9.0 mph 37% 0.00 in
17:51 99.7 °F 68.0 °F 29.86 in SW 9.0 mph 11.0 mph 36% 0.00 in
17:56 99.2 °F 67.6 °F 29.86 in SSW 4.0 mph 8.0 mph 36% 0.00 in
18:01 99.6 °F 68.7 °F 29.86 in SW 5.0 mph 9.0 mph 37% 0.00 in
18:06 99.2 °F 68.4 °F 29.85 in WNW 4.0 mph 8.0 mph 37% 0.00 in
18:11 98.3 °F 69.1 °F 29.85 in West 5.0 mph 10.0 mph 39% 0.00 in
18:16 97.7 °F 68.6 °F 29.85 in West 3.0 mph 8.0 mph 39% 0.00 in
18:21 97.8 °F 69.4 °F 29.85 in West 4.0 mph 7.0 mph 40% 0.00 in
18:26 98.2 °F 69.8 °F 29.85 in West 7.0 mph 7.0 mph 40% 0.00 in
18:31 98.0 °F 68.8 °F 29.85 in WNW 8.0 mph 9.0 mph 39% 0.00 in
18:36 97.9 °F 70.2 °F 29.85 in WNW 7.0 mph 8.0 mph 41% 0.00 in
18:41 97.9 °F 69.5 °F 29.85 in West 4.0 mph 7.0 mph 40% 0.00 in
18:46 98.0 °F 69.6 °F 29.85 in West 5.0 mph 7.0 mph 40% 0.00 in
18:51 97.8 °F 69.4 °F 29.85 in WNW 4.0 mph 9.0 mph 40% 0.00 in
18:56 97.9 °F 69.5 °F 29.85 in West 5.0 mph 5.0 mph 40% 0.00 in
19:01 97.9 °F 69.5 °F 29.85 in WSW 5.0 mph 8.0 mph 40% 0.00 in
19:06 97.9 °F 69.5 °F 29.85 in WNW 5.0 mph 7.0 mph 40% 0.00 in
19:11 97.7 °F 70.0 °F 29.85 in WNW 3.0 mph 5.0 mph 41% 0.00 in
19:16 97.6 °F 69.9 °F 29.85 in WNW 4.0 mph 6.0 mph 41% 0.00 in
19:21 97.3 °F 69.7 °F 29.85 in WNW 4.0 mph 8.0 mph 41% 0.00 in
19:26 97.1 °F 69.5 °F 29.85 in WSW 4.0 mph 6.0 mph 41% 0.00 in
19:32 97.0 °F 70.1 °F 29.85 in West 5.0 mph 6.0 mph 42% 0.00 in
19:37 96.8 °F 69.9 °F 29.85 in West 3.0 mph 6.0 mph 42% 0.00 in
19:42 96.8 °F 70.6 °F 29.85 in WSW 4.0 mph 5.0 mph 43% 0.00 in
19:47 96.7 °F 69.8 °F 29.86 in West 5.0 mph 8.0 mph 42% 0.00 in
19:52 96.6 °F 70.4 °F 29.86 in West 3.0 mph 7.0 mph 43% 0.00 in
19:57 96.5 °F 69.7 °F 29.87 in West 5.0 mph 7.0 mph 42% 0.00 in
20:02 96.4 °F 70.9 °F 29.87 in WNW 3.0 mph 5.0 mph 44% 0.00 in
20:07 96.1 °F 70.7 °F 29.86 in West 6.0 mph 7.0 mph 44% 0.00 in
20:12 95.9 °F 70.5 °F 29.87 in West 4.0 mph 5.0 mph 44% 0.00 in
20:17 95.6 °F 70.9 °F 29.87 in WNW 5.0 mph 5.0 mph 45% 0.00 in
20:22 95.4 °F 70.7 °F 29.87 in WSW 1.0 mph 4.0 mph 45% 0.00 in
20:27 95.1 °F 71.1 °F 29.88 in WSW 2.0 mph 4.0 mph 46% 0.00 in
20:32 94.9 °F 70.9 °F 29.88 in West 2.0 mph 3.0 mph 46% 0.00 in
20:37 94.6 °F 70.6 °F 29.88 in West 2.0 mph 3.0 mph 46% 0.00 in
20:42 94.2 °F 71.5 °F 29.87 in West 1.0 mph 2.0 mph 48% 0.00 in
20:47 93.8 °F 71.2 °F 29.87 in West 1.0 mph 2.0 mph 48% 0.00 in
20:52 93.4 °F 70.8 °F 29.87 in WSW 2.0 mph 4.0 mph 48% 0.00 in
20:57 92.9 °F 70.9 °F 29.87 in West 1.0 mph 3.0 mph 49% 0.00 in
21:02 92.4 °F 70.5 °F 29.87 in WSW 2.0 mph 2.0 mph 49% 0.00 in
21:07 92.0 °F 70.7 °F 29.87 in SW 2.0 mph 2.0 mph 50% 0.00 in
21:12 91.4 °F 70.7 °F 29.87 in Calm   1.0 mph 51% 0.00 in
21:17 90.8 °F 70.2 °F 29.87 in WSW 1.0 mph 1.0 mph 51% 0.00 in
21:22 90.4 °F 70.4 °F 29.87 in Calm   1.0 mph 52% 0.00 in
21:27 90.1 °F 70.1 °F 29.86 in NW 1.0 mph 2.0 mph 52% 0.00 in
21:32 89.9 °F 70.5 °F 29.86 in NW 2.0 mph 3.0 mph 53% 0.00 in
21:37 89.6 °F 70.2 °F 29.86 in NW 1.0 mph 4.0 mph 53% 0.00 in
21:42 89.3 °F 70.5 °F 29.87 in Calm   2.0 mph 54% 0.00 in
21:47 89.0 °F 70.8 °F 29.87 in Calm   1.0 mph 55% 0.00 in
21:52 88.6 °F 70.4 °F 29.87 in WNW 1.0 mph 2.0 mph 55% 0.00 in
21:58 88.3 °F 70.6 °F 29.87 in Calm   1.0 mph 56% 0.00 in
22:03 88.0 °F 70.9 °F 29.88 in WNW 1.0 mph 1.0 mph 57% 0.00 in
22:08 87.4 °F 70.8 °F 29.88 in SSE 1.0 mph 2.0 mph 58% 0.00 in
22:13 87.0 °F 70.4 °F 29.89 in SSE 1.0 mph 2.0 mph 58% 0.00 in
22:18 86.4 °F 70.4 °F 29.89 in South 1.0 mph 1.0 mph 59% 0.00 in
22:23 85.7 °F 70.7 °F 29.89 in SSE 2.0 mph 2.0 mph 61% 0.00 in
22:28 85.2 °F 70.7 °F 29.89 in SSE 2.0 mph 2.0 mph 62% 0.00 in
22:33 85.0 °F 70.5 °F 29.89 in SE 2.0 mph 2.0 mph 62% 0.00 in
22:38 85.0 °F 70.5 °F 29.90 in SSE 1.0 mph 2.0 mph 62% 0.00 in
22:43 84.8 °F 70.3 °F 29.90 in Calm   1.0 mph 62% 0.00 in
22:48 84.6 °F 70.6 °F 29.90 in Calm     63% 0.00 in
22:53 84.2 °F 70.2 °F 29.91 in Calm     63% 0.00 in
22:58 83.9 °F 70.4 °F 29.91 in SSE 1.0 mph 1.0 mph 64% 0.00 in
23:03 83.7 °F 70.7 °F 29.91 in SSE 1.0 mph 1.0 mph 65% 0.00 in
23:08 83.4 °F 70.4 °F 29.91 in SSW 1.0 mph 1.0 mph 65% 0.00 in
23:13 83.2 °F 70.7 °F 29.92 in SSW 1.0 mph 1.0 mph 66% 0.00 in
23:18 83.1 °F 70.6 °F 29.92 in Calm   1.0 mph 66% 0.00 in
23:23 83.0 °F 70.5 °F 29.91 in SW 1.0 mph 1.0 mph 66% 0.00 in
23:28 83.1 °F 70.6 °F 29.92 in SW 3.0 mph 3.0 mph 66% 0.00 in
23:33 83.5 °F 70.9 °F 29.91 in WSW 1.0 mph 2.0 mph 66% 0.00 in
23:38 83.6 °F 71.1 °F 29.91 in SW 2.0 mph 2.0 mph 66% 0.00 in
23:43 83.6 °F 70.6 °F 29.92 in WSW 1.0 mph 2.0 mph 65% 0.00 in
23:48 83.6 °F 70.6 °F 29.91 in SW 1.0 mph 1.0 mph 65% 0.00 in
23:53 83.6 °F 70.6 °F 29.91 in SW 1.0 mph 1.0 mph 65% 0.00 in
23:58 83.3 °F 70.8 °F 29.92 in Calm   1.0 mph 66% 0.00 in
Compliments of Weather Underground